Погода в Бабине

Россия / Тверская область     56°44′04″N   34°16′48″E
темп.,
°C
ветер,
м/с
пор.,
м/с
влажн.,
%
обл.,
%
осадки,
мм/ч
давл.,
гПа
погр.,
м
24 сентября, пт
пт2400:00+5ю31088100 0.0 1006474
03:00+4ююв41193100 0.0 1004647
06:00+4ююв41092100 0.0 1002677
09:00+5ююв51289100 0.0 1001796
12:00+6юв51187100 0.1 1000956
15:00+6юв51193100 0.7 10001065
18:00+6юв51194100 0.3 10011005
21:00+7юв41194100 0.4 1002797
25 сентября, сб
сб2500:00+7юв3996100 0.1 1003614
03:00+7юв3898100 0.4 1004547
06:00+7ююв3898100 0.0 1004598
09:00+7ю4995100 0.1 1005543
12:00+8ю41093100 0.1 1005712
15:00+7ююз4996100 0.8 1005585
18:00+8ю3997100 0.4 1004642
21:00+8ююз3898100 1.0 1004506
26 сентября, вс
вс2600:00+8зюз3899100 2.0 1004585
03:00+8сз41097100 3.2 1005733
06:00+7сз51294100 0.5 1008800
09:00+7сз41196100 0.7 1010746
12:00+9ссз51088100 0.3 1012978
15:00+9ссз5988100 0.9 1014897
18:00+8ссз499253 0.3 1017643
21:00+8ссз3995100 0.3 1018544
27 сентября, пн
пн2700:00+8ссз4995100 0.1 1020523
03:00+8с3897100 0.3 1022489
06:00+8ссз279797 0.1 1023379
09:00+8с3795100 0.1 1025404
12:00+11ссв357879 0.0 1026754
15:00+12с467349 0.3 10261056
18:00+9с378488 0.1 1027381
21:00+8ссв2889100 0.2 1028436
28 сентября, вт
вт2800:00+6ссв26975 0.0 1029137
03:00+6ссв2594100 0.0 1030158
06:00+7ссв2695100 0.0 1031268
09:00+8св2793100 0.0 1032373
12:00+10св347999 0.0 1033707
15:00+11св336798 0.0 10321039
18:00+10св2369100 0.0 1033123
21:00+9всв1172100 0.0 103330